Location: Nairn
(57.5833°N, 3.8667°W)
Time: 04:11:56
(UTC+00:00)

Altair - Pass Details

Date: 04 December 2020
Orbit: 1501 x 1682 km, 47.2° (Epoch: 17 January)

Event Time Altitude Azimuth Distance (km) Brightness Sun altitude
Rises 18:09:01 0° 193° (SSW) 4,757 10.4 -19.1°
Reaches altitude 10° 18:13:14 10° 178° (S) 3,744 9.6 -19.7°
Maximum altitude 18:19:17 19° 137° (SE) 3,031 8.7 -20.5°
Enters shadow 18:21:12 18° 122° (ESE) 3,097 8.7 -20.7°
